| time (UTC) | temp F | wind direction | speed MPH | gust MPH | rain 1hr in | rain 24hr in | rain mn in | humidity % | barometer mb |
| 20260505041551 | 57 | 142 | 1.0 | 3.0 | 0.00 | 0.00 | 0.00 | 74 | 1013.6 |
| 20260505041024 | 58 | 132 | 2.0 | 3.0 | 0.00 | 0.00 | 0.00 | 74 | 1013.6 |
| 20260505040530 | 58 | 129 | 1.0 | 2.0 | 0.00 | 0.00 | 0.00 | 74 | 1013.6 |
| 20260505040036 | 58 | 132 | 1.0 | 2.0 | 0.00 | 0.00 | 0.00 | 73 | 1013.6 |
| 20260505035525 | 58 | 112 | 1.0 | 2.0 | 0.00 | 0.00 | 0.00 | 73 | 1013.6 |
| 20260505035023 | 58 | 116 | 1.0 | 2.0 | 0.00 | 0.00 | 0.00 | 73 | 1013.7 |
| 20260505034544 | 58 | 127 | 1.0 | 2.0 | 0.00 | 0.00 | 0.00 | 73 | 1013.7 |
| 20260505034024 | 58 | 109 | 0.0 | 2.0 | 0.00 | 0.00 | 0.00 | 73 | 1013.8 |
| 20260505033521 | 58 | 160 | 0.0 | 2.0 | 0.00 | 0.00 | 0.00 | 73 | 1013.7 |
| 20260505033041 | 58 | 166 | 0.0 | 2.0 | 0.00 | 0.00 | 0.00 | 73 | 1013.7 |
| 20260505032521 | 58 | 0 | 0.0 | 2.0 | 0.00 | 0.00 | 0.00 | 73 | 1013.8 |
| 20260505032023 | 58 | 151 | 0.0 | 2.0 | 0.00 | 0.00 | 0.00 | 72 | 1013.7 |
| 20260505031540 | 59 | 173 | 0.0 | 2.0 | 0.00 | 0.00 | 0.00 | 71 | 1013.6 |
| 20260505031024 | 59 | 0 | 0.0 | 2.0 | 0.00 | 0.00 | 0.00 | 72 | 1013.5 |
| 20260505030524 | 59 | 144 | 1.0 | 2.0 | 0.00 | 0.00 | 0.00 | 71 | 1013.5 |
| 20260505030108 | 60 | 109 | 1.0 | 2.0 | 0.00 | 0.00 | 0.00 | 71 | 1013.5 |
| 20260505025526 | 60 | 120 | 1.0 | 2.0 | 0.00 | 0.00 | 0.00 | 70 | 1013.5 |
| 20260505025022 | 60 | 127 | 0.0 | 2.0 | 0.00 | 0.00 | 0.00 | 70 | 1013.6 |
| 20260505024550 | 61 | 113 | 0.0 | 2.0 | 0.00 | 0.00 | 0.00 | 69 | 1013.5 |
| 20260505024020 | 61 | 113 | 1.0 | 1.0 | 0.00 | 0.00 | 0.00 | 68 | 1013.6 |
| 20260505023523 | 61 | 113 | 1.0 | 1.0 | 0.00 | 0.00 | 0.00 | 67 | 1013.6 |
| 20260505023037 | 62 | 113 | 0.0 | 2.0 | 0.00 | 0.00 | 0.00 | 66 | 1013.7 |
| 20260505022523 | 62 | 113 | 0.0 | 2.0 | 0.00 | 0.00 | 0.00 | 66 | 1013.6 |
| 20260505022021 | 62 | 0 | 0.0 | 2.0 | 0.00 | 0.00 | 0.00 | 67 | 1013.6 |
| 20260505021544 | 63 | 113 | 1.0 | 2.0 | 0.00 | 0.00 | 0.00 | 66 | 1013.5 |
| 20260505021023 | 64 | 113 | 1.0 | 2.0 | 0.00 | 0.00 | 0.00 | 64 | 1013.6 |
| 20260505020521 | 64 | 113 | 0.0 | 2.0 | 0.00 | 0.00 | 0.00 | 62 | 1013.6 |
| 20260505020042 | 64 | 0 | 0.0 | 2.0 | 0.00 | 0.00 | 0.00 | 61 | 1013.4 |
| 20260505015524 | 65 | 113 | 0.0 | 1.0 | 0.00 | 0.00 | 0.00 | 60 | 1013.4 |
| 20260505015024 | 65 | 111 | 0.0 | 1.0 | 0.00 | 0.00 | 0.00 | 59 | 1013.4 |
| 20260505014602 | 66 | 111 | 0.0 | 1.0 | 0.00 | 0.00 | 0.00 | 58 | 1013.4 |
| 20260505014024 | 66 | 122 | 1.0 | 1.0 | 0.00 | 0.00 | 0.00 | 57 | 1013.3 |
| 20260505013523 | 66 | 115 | 0.0 | 1.0 | 0.00 | 0.00 | 0.00 | 56 | 1013.2 |
| 20260505013047 | 66 | 114 | 1.0 | 1.0 | 0.00 | 0.00 | 0.00 | 55 | 1013.2 |
| 20260505012523 | 66 | 109 | 0.0 | 2.0 | 0.00 | 0.00 | 0.00 | 55 | 1013.2 |
| 20260505012024 | 67 | 107 | 0.0 | 2.0 | 0.00 | 0.00 | 0.00 | 53 | 1013.2 |
| 20260505011542 | 67 | 206 | 0.0 | 2.0 | 0.00 | 0.00 | 0.00 | 52 | 1013.1 |
| 20260505011025 | 67 | 230 | 0.0 | 2.0 | 0.00 | 0.00 | 0.00 | 51 | 1013.0 |
| 20260505010522 | 68 | 189 | 0.0 | 3.0 | 0.00 | 0.00 | 0.00 | 51 | 1013.1 |
| 20260505010054 | 68 | 179 | 0.0 | 3.0 | 0.00 | 0.00 | 0.00 | 52 | 1012.9 |
| 20260505005525 | 69 | 166 | 1.0 | 3.0 | 0.00 | 0.00 | 0.00 | 51 | 1012.8 |
| 20260505005023 | 69 | 121 | 1.0 | 2.0 | 0.00 | 0.00 | 0.00 | 51 | 1012.8 |
| 20260505004549 | 69 | 162 | 0.0 | 2.0 | 0.00 | 0.00 | 0.00 | 51 | 1012.8 |
| 20260505004021 | 70 | 0 | 0.0 | 2.0 | 0.00 | 0.00 | 0.00 | 50 | 1012.7 |
| 20260505003523 | 71 | 148 | 1.0 | 3.0 | 0.00 | 0.00 | 0.00 | 48 | 1012.7 |
| 20260505003053 | 71 | 140 | 1.0 | 4.0 | 0.00 | 0.00 | 0.00 | 48 | 1012.7 |
| 20260505002524 | 72 | 150 | 1.0 | 5.0 | 0.00 | 0.00 | 0.00 | 47 | 1012.7 |
| 20260505002024 | 72 | 126 | 2.0 | 6.0 | 0.00 | 0.00 | 0.00 | 46 | 1012.8 |
| 20260505001541 | 73 | 110 | 3.0 | 6.0 | 0.00 | 0.00 | 0.00 | 45 | 1012.8 |
| 20260505001023 | 73 | 158 | 2.0 | 5.0 | 0.00 | 0.00 | 0.00 | 45 | 1012.7 |
| 20260505000522 | 73 | 149 | 3.0 | 5.0 | 0.00 | 0.00 | 0.00 | 44 | 1012.7 |
| 20260505000037 | 73 | 163 | 3.0 | 8.0 | 0.00 | 0.00 | 0.00 | 44 | 1012.8 |
| 20260504235523 | 74 | 119 | 3.0 | 8.0 | 0.00 | 0.00 | 0.00 | 43 | 1012.8 |
| 20260504235023 | 74 | 95 | 4.0 | 7.0 | 0.00 | 0.00 | 0.00 | 43 | 1012.7 |
| 20260504234545 | 74 | 174 | 3.0 | 11.0 | 0.00 | 0.00 | 0.00 | 42 | 1012.8 |
| 20260504234022 | 74 | 144 | 5.0 | 11.0 | 0.00 | 0.00 | 0.00 | 41 | 1012.7 |
| 20260504233523 | 75 | 184 | 3.0 | 12.0 | 0.00 | 0.00 | 0.00 | 41 | 1012.7 |
| 20260504233042 | 75 | 168 | 2.0 | 12.0 | 0.00 | 0.00 | 0.00 | 41 | 1012.7 |
| 20260504232527 | 75 | 180 | 4.0 | 12.0 | 0.00 | 0.00 | 0.00 | 40 | 1012.8 |
| 20260504232023 | 75 | 214 | 6.0 | 12.0 | 0.00 | 0.00 | 0.00 | 40 | 1012.9 |
| 20260504231541 | 76 | 134 | 5.0 | 12.0 | 0.00 | 0.00 | 0.00 | 40 | 1012.9 |
| 20260504231022 | 76 | 140 | 4.0 | 11.0 | 0.00 | 0.00 | 0.00 | 40 | 1012.9 |
| 20260504230524 | 76 | 160 | 6.0 | 11.0 | 0.00 | 0.00 | 0.00 | 40 | 1012.8 |
| 20260504230037 | 76 | 97 | 4.0 | 11.0 | 0.00 | 0.00 | 0.00 | 40 | 1012.8 |
| 20260504225523 | 76 | 200 | 4.0 | 13.0 | 0.00 | 0.00 | 0.00 | 39 | 1012.8 |
| 20260504225024 | 77 | 138 | 7.0 | 14.0 | 0.00 | 0.00 | 0.00 | 39 | 1012.9 |
| 20260504224546 | 77 | 119 | 4.0 | 14.0 | 0.00 | 0.00 | 0.00 | 41 | 1012.9 |
| 20260504224022 | 77 | 158 | 6.0 | 11.0 | 0.00 | 0.00 | 0.00 | 40 | 1012.9 |
| 20260504223522 | 77 | 135 | 6.0 | 11.0 | 0.00 | 0.00 | 0.00 | 41 | 1012.8 |
| 20260504223056 | 77 | 120 | 5.0 | 12.0 | 0.00 | 0.00 | 0.00 | 42 | 1012.8 |
| 20260504222523 | 78 | 152 | 5.0 | 12.0 | 0.00 | 0.00 | 0.00 | 42 | 1012.7 |
| 20260504222023 | 78 | 90 | 5.0 | 12.0 | 0.00 | 0.00 | 0.00 | 42 | 1012.9 |
| 20260504221541 | 78 | 137 | 5.0 | 15.0 | 0.00 | 0.00 | 0.00 | 42 | 1012.8 |
| 20260504221022 | 78 | 97 | 5.0 | 15.0 | 0.00 | 0.00 | 0.00 | 42 | 1012.8 |
| 20260504220523 | 78 | 152 | 6.0 | 15.0 | 0.00 | 0.00 | 0.00 | 42 | 1012.7 |
| 20260504220037 | 78 | 148 | 7.0 | 14.0 | 0.00 | 0.00 | 0.00 | 41 | 1012.8 |
| 20260504215524 | 78 | 126 | 7.0 | 17.0 | 0.00 | 0.00 | 0.00 | 42 | 1012.7 |
| 20260504215026 | 78 | 135 | 7.0 | 17.0 | 0.00 | 0.00 | 0.00 | 42 | 1012.6 |
| 20260504214538 | 78 | 149 | 8.0 | 15.0 | 0.00 | 0.00 | 0.00 | 42 | 1012.5 |
| 20260504214027 | 78 | 177 | 6.0 | 14.0 | 0.00 | 0.00 | 0.00 | 42 | 1012.6 |
| 20260504213523 | 78 | 169 | 5.0 | 14.0 | 0.00 | 0.00 | 0.00 | 43 | 1012.5 |
| 20260504213043 | 78 | 116 | 3.0 | 10.0 | 0.00 | 0.00 | 0.00 | 44 | 1012.5 |
| 20260504212521 | 78 | 138 | 5.0 | 9.0 | 0.00 | 0.00 | 0.00 | 44 | 1012.6 |
| 20260504212024 | 78 | 167 | 4.0 | 9.0 | 0.00 | 0.00 | 0.00 | 44 | 1012.7 |
| 20260504211611 | 78 | 148 | 3.0 | 10.0 | 0.00 | 0.00 | 0.00 | 46 | 1012.7 |
| 20260504211020 | 78 | 117 | 7.0 | 10.0 | 0.00 | 0.00 | 0.00 | 44 | 1012.6 |
| 20260504210524 | 78 | 108 | 3.0 | 10.0 | 0.00 | 0.00 | 0.00 | 44 | 1012.7 |
| 20260504210046 | 78 | 283 | 3.0 | 10.0 | 0.00 | 0.00 | 0.00 | 43 | 1012.8 |
| 20260504205524 | 79 | 128 | 2.0 | 9.0 | 0.00 | 0.00 | 0.00 | 45 | 1012.8 |
| 20260504205100 | 79 | 221 | 3.0 | 11.0 | 0.00 | 0.00 | 0.00 | 44 | 1012.9 |
| 20260504204542 | 79 | 148 | 6.0 | 11.0 | 0.00 | 0.00 | 0.00 | 45 | 1013.0 |
| 20260504204023 | 79 | 152 | 3.0 | 11.0 | 0.00 | 0.00 | 0.00 | 44 | 1012.9 |
| 20260504203523 | 80 | 228 | 4.0 | 11.0 | 0.00 | 0.00 | 0.00 | 43 | 1013.0 |
| 20260504203046 | 79 | 175 | 5.0 | 10.0 | 0.00 | 0.00 | 0.00 | 43 | 1013.0 |
| 20260504202523 | 79 | 152 | 3.0 | 9.0 | 0.00 | 0.00 | 0.00 | 42 | 1013.0 |
| 20260504202024 | 79 | 177 | 5.0 | 10.0 | 0.00 | 0.00 | 0.00 | 44 | 1013.1 |
| 20260504201541 | 78 | 164 | 2.0 | 12.0 | 0.00 | 0.00 | 0.00 | 44 | 1013.2 |
| 20260504201026 | 79 | 292 | 5.0 | 12.0 | 0.00 | 0.00 | 0.00 | 43 | 1013.1 |
| 20260504200523 | 79 | 96 | 6.0 | 12.0 | 0.00 | 0.00 | 0.00 | 42 | 1013.1 |
| 20260504200040 | 80 | 144 | 5.0 | 10.0 | 0.00 | 0.00 | 0.00 | 41 | 1013.2 |
| 20260504195523 | 80 | 79 | 2.0 | 7.0 | 0.00 | 0.00 | 0.00 | 41 | 1013.2 |
| 20260504195023 | 79 | 144 | 3.0 | 12.0 | 0.00 | 0.00 | 0.00 | 43 | 1013.2 |
| 20260504194545 | 79 | 218 | 5.0 | 12.0 | 0.00 | 0.00 | 0.00 | 42 | 1013.4 |
| 20260504194024 | 79 | 117 | 3.0 | 8.0 | 0.00 | 0.00 | 0.00 | 43 | 1013.5 |
| 20260504193521 | 79 | 125 | 3.0 | 9.0 | 0.00 | 0.00 | 0.00 | 42 | 1013.6 |
| 20260504193038 | 79 | 110 | 3.0 | 10.0 | 0.00 | 0.00 | 0.00 | 42 | 1013.8 |
| 20260504192520 | 79 | 112 | 5.0 | 10.0 | 0.00 | 0.00 | 0.00 | 44 | 1013.8 |
| 20260504192023 | 78 | 103 | 3.0 | 9.0 | 0.00 | 0.00 | 0.00 | 43 | 1013.9 |
| 20260504191537 | 78 | 260 | 2.0 | 8.0 | 0.00 | 0.00 | 0.00 | 43 | 1013.9 |
| 20260504191020 | 78 | 275 | 3.0 | 11.0 | 0.00 | 0.00 | 0.00 | 43 | 1014.1 |
| 20260504190523 | 78 | 150 | 5.0 | 12.0 | 0.00 | 0.00 | 0.00 | 43 | 1014.2 |
| 20260504190045 | 78 | 108 | 4.0 | 12.0 | 0.00 | 0.00 | 0.00 | 42 | 1014.1 |
| 20260504185522 | 78 | 113 | 3.0 | 9.0 | 0.00 | 0.00 | 0.00 | 44 | 1014.3 |
| 20260504185023 | 78 | 133 | 3.0 | 9.0 | 0.00 | 0.00 | 0.00 | 44 | 1014.2 |
| 20260504184548 | 77 | 107 | 4.0 | 8.0 | 0.00 | 0.00 | 0.00 | 44 | 1014.2 |
| 20260504184024 | 77 | 112 | 3.0 | 8.0 | 0.00 | 0.00 | 0.00 | 44 | 1014.3 |
| 20260504183524 | 78 | 174 | 3.0 | 8.0 | 0.00 | 0.00 | 0.00 | 42 | 1014.3 |
| 20260504183037 | 78 | 207 | 3.0 | 11.0 | 0.00 | 0.00 | 0.00 | 44 | 1014.3 |
| 20260504182523 | 78 | 98 | 5.0 | 11.0 | 0.00 | 0.00 | 0.00 | 44 | 1014.3 |
| 20260504182024 | 79 | 117 | 4.0 | 8.0 | 0.00 | 0.00 | 0.00 | 43 | 1014.3 |
| 20260504181538 | 78 | 92 | 2.0 | 12.0 | 0.00 | 0.00 | 0.00 | 44 | 1014.5 |
| 20260504181023 | 77 | 77 | 2.0 | 12.0 | 0.00 | 0.00 | 0.00 | 45 | 1014.5 |
| 20260504180523 | 77 | 117 | 6.0 | 11.0 | 0.00 | 0.00 | 0.00 | 43 | 1014.5 |
| 20260504180045 | 78 | 132 | 2.0 | 12.0 | 0.00 | 0.00 | 0.00 | 41 | 1014.7 |
| 20260504175522 | 78 | 204 | 4.0 | 12.0 | 0.00 | 0.00 | 0.00 | 41 | 1015.0 |
| 20260504175027 | 77 | 319 | 4.0 | 12.0 | 0.00 | 0.00 | 0.00 | 43 | 1015.0 |
| 20260504174544 | 77 | 253 | 2.0 | 10.0 | 0.00 | 0.00 | 0.00 | 44 | 1015.1 |
| 20260504174021 | 77 | 321 | 3.0 | 9.0 | 0.00 | 0.00 | 0.00 | 43 | 1015.2 |
| 20260504173522 | 77 | 233 | 3.0 | 10.0 | 0.00 | 0.00 | 0.00 | 43 | 1015.2 |
| 20260504173044 | 77 | 309 | 4.0 | 10.0 | 0.00 | 0.00 | 0.00 | 43 | 1015.2 |
| 20260504172523 | 77 | 139 | 2.0 | 8.0 | 0.00 | 0.00 | 0.00 | 44 | 1015.3 |
| 20260504172023 | 77 | 121 | 2.0 | 9.0 | 0.00 | 0.00 | 0.00 | 44 | 1015.3 |
| 20260504171540 | 77 | 36 | 3.0 | 9.0 | 0.00 | 0.00 | 0.00 | 44 | 1015.4 |
| 20260504171022 | 77 | 237 | 3.0 | 9.0 | 0.00 | 0.00 | 0.00 | 43 | 1015.4 |
| 20260504170524 | 76 | 185 | 3.0 | 9.0 | 0.00 | 0.00 | 0.00 | 46 | 1015.5 |
| 20260504151025 | 69 | 160 | 3.0 | 9.0 | 0.00 | 0.00 | 0.00 | 50 | 1016.8 |
| 20260504150526 | 69 | 128 | 4.0 | 9.0 | 0.00 | 0.00 | 0.00 | 50 | 1016.9 |
| 20260504141022 | 60 | 117 | 1.0 | 3.0 | 0.00 | 0.00 | 0.00 | 67 | 1017.3 |
| 20260504140524 | 60 | 148 | 1.0 | 3.0 | 0.00 | 0.00 | 0.00 | 68 | 1017.4 |
| 20260504130522 | 50 | 259 | 1.0 | 2.0 | 0.00 | 0.00 | 0.00 | 86 | 1017.5 |
| 20260504110524 | 42 | 153 | 0.0 | 2.0 | 0.00 | 0.00 | 0.00 | 88 | 1017.0 |
| 20260504100521 | 43 | 121 | 1.0 | 2.0 | 0.00 | 0.00 | 0.00 | 86 | 1016.9 |
| 20260504081542 | 46 | 132 | 0.0 | 2.0 | 0.00 | 0.00 | 0.00 | 83 | 1016.5 |
| 20260504081024 | 46 | 0 | 0.0 | 0.0 | 0.00 | 0.00 | 0.00 | 83 | 1016.5 |
| 20260504080521 | 46 | 0 | 0.0 | 2.0 | 0.00 | 0.00 | 0.00 | 83 | 1016.4 |
| 20260504050522 | 49 | 130 | 0.0 | 2.0 | 0.00 | 0.00 | 0.00 | 78 | 1017.5 |